Retour au catalogue

STARLINK-34115

ActifCommunicationsVLEO
NORAD 63972·PAYLOAD·🇺🇸 United States

Lancé May 13, 2025 depuis Cape Canaveral Space Force Station

Loading…

Prochains Passages (prochaines 24 heures)

TLE

FraisSource: CelesTrak SupGP

Époque: Sep 15, 2026, 03:59 UTC

1 63972C 25099W   26258.16645833 -.00000620  00000+0 -22477-4 0  2584
2 63972  42.9997 182.5250 0001398 275.1059 176.6905 15.27571839    15

Suivez STARLINK-34115 en temps réel avec AllMySat

Download on the App Store